Content
SEND FEEDBACK

Daily
Averages
Monthly
Summary
United States of America

WEST YELLOWSTONE, MONTANA


Home > North America > United States > Montana
Elevation: 6644 feet     Latitude: 44 41N     Longitude: 111 06W

WEATHER
 
SELECT A DAY
Number of Records: 28,150;   Date Range: 9/1/12 - 11/14/13
 
SHARE

PRINT THIS DATA

[ ← Previous Day ]
WEATHER ALMANAC - NOVEMBER 9, 2013
[ Next Day → ]
[ °C ]   °F
Weather ElementAverageHighLow
Temperature30.2 °F37.4 °F (3:10 pm)23 °F (8:50 pm)
Dewpoint26.3 °F32 °F (1:50 pm)17.6 °F (9:30 pm)
Humidity85.3 %93 % (7:50 pm)80 % (9:30 am)
Barometer30.18 in30.25 in (10:10 pm)30.10 in (12:30 am)
Wind Speed3.7 mph11.5 mph (12:30 am)
Wind Gust17.3 mph (10:50 am)
Weather ElementAverage
Visibility10 mi
Wind DirectionESE (123.7 °)

Weather ElementTotal
Precipitation---
Heating Degree Days34.8 (Base 65)
Averaged from 71 records on November 9, 2013
WEATHER CONDITIONS BREAKOUT
WIND DIRECTION BREAKOUT
WEATHER BY HOUR - NOVEMBER 9, 2013
[ °C ]   °F
Local TimeTemperatureDewpointHumidityBarometerVisibilityWind DirectionWind SpeedGust SpeedPrecipitationEventsConditions
12:30 AM30.2 °F26.6 °F86 %30.10 in10.0 miSSW (200°)11.5 mphOvercast
12:50 AM30.2 °F26.6 °F86 %30.10 in10.0 miSW (220°)5.8 mphOvercast
1:10 AM30.2 °F26.6 °F86 %30.10 in10.0 miSSW (200°)8.1 mphOvercast
1:30 AM30.2 °F26.6 °F86 %30.10 in10.0 miSouth (180°)10.4 mphOvercast
1:50 AM30.2 °F26.6 °F86 %30.10 in10.0 miSouth (180°)8.1 mphOvercast
2:10 AM30.2 °F26.6 °F86 %30.11 in10.0 miSouth (170°)5.8 mphOvercast
2:30 AM30.2 °F26.6 °F86 %30.11 in10.0 miSouth (190°)6.9 mphOvercast
2:50 AM30.2 °F26.6 °F86 %30.11 in10.0 miSouth (190°)6.9 mphOvercast
3:10 AM30.2 °F26.6 °F86 %30.11 in10.0 miSSW (200°)6.9 mphOvercast
3:30 AM30.2 °F26.6 °F86 %30.11 in10.0 miCalmOvercast
3:50 AM30.2 °F26.6 °F86 %30.13 in10.0 miSSW (210°)3.5 mphOvercast
4:10 AM30.2 °F26.6 °F86 %30.12 in10.0 miCalmOvercast
4:30 AM30.2 °F26.6 °F86 %30.13 in10.0 miCalmOvercast
4:50 AM28.4 °F24.8 °F86 %30.13 in10.0 miCalmOvercast
5:10 AM28.4 °F24.8 °F86 %30.15 in10.0 miCalmOvercast
5:30 AM28.4 °F24.8 °F86 %30.15 in10.0 miCalmOvercast
5:50 AM28.4 °F24.8 °F86 %30.15 in10.0 miCalmOvercast
6:10 AM30.2 °F26.6 °F86 %30.15 in10.0 miSW (220°)3.5 mphOvercast
6:30 AM30.2 °F26.6 °F86 %30.15 in10.0 miCalmOvercast
6:50 AM30.2 °F26.6 °F86 %30.15 in10.0 miWSW (240°)3.5 mphOvercast
7:10 AM30.2 °F26.6 °F86 %30.16 in10.0 miWSW (240°)3.5 mphOvercast
7:30 AM30.2 °F26.6 °F86 %30.17 in10.0 miCalmOvercast
7:50 AM30.2 °F26.6 °F86 %30.17 in10.0 miSW (220°)3.5 mphOvercast
8:10 AM30.2 °F26.6 °F86 %30.18 in10.0 miCalmOvercast
8:30 AM30.2 °F26.6 °F86 %30.18 in10.0 miCalmOvercast
8:50 AM30.2 °F26.6 °F86 %30.18 in10.0 miCalmOvercast
9:10 AM30.2 °F26.6 °F86 %30.19 in10.0 miSSW (200°)4.6 mphOvercast
9:30 AM32.0 °F26.6 °F80 %30.19 in10.0 miSW (220°)8.1 mphOvercast
9:50 AM32.0 °F26.6 °F80 %30.19 in10.0 miCalmOvercast
10:05 AM32.0 °F28.4 °F87 %30.20 in10.0 miSSW (210°)4.6 mphOvercast
10:30 AM32.0 °F28.4 °F87 %30.20 in10.0 miSW (220°)8.1 mphOvercast
10:50 AM32.0 °F28.4 °F87 %30.20 in10.0 miSouth (190°)10.4 mph17.3 mphOvercast
11:10 AM33.8 °F30.2 °F87 %30.21 in10.0 miSSW (210°)8.1 mphOvercast
11:30 AM33.8 °F30.2 °F87 %30.21 in10.0 miSW (230°)9.2 mphOvercast
11:45 AM32.0 °F28.4 °F87 %30.21 in10.0 miSouth (190°)8.1 mphOvercast
12:05 PM32.0 °F28.4 °F87 %30.20 in10.0 miSW (220°)10.4 mphOvercast
12:30 PM32.0 °F28.4 °F87 %30.20 in10.0 miSW (220°)11.5 mphOvercast
12:50 PM32.0 °F28.4 °F87 %30.19 in10.0 miSSW (210°)10.4 mphOvercast
1:10 PM33.8 °F30.2 °F87 %30.19 in10.0 miSW (220°)5.8 mphOvercast
1:30 PM33.8 °F30.2 °F87 %30.19 in10.0 miSW (220°)5.8 mphOvercast
1:50 PM35.6 °F32.0 °F87 %30.19 in10.0 miSouth (190°)5.8 mphOvercast
2:10 PM35.6 °F32.0 °F87 %30.18 in10.0 miSouth (180°)3.5 mphOvercast
2:30 PM35.6 °F32.0 °F87 %30.19 in10.0 miSSW (200°)3.5 mphOvercast
2:50 PM35.6 °F32.0 °F87 %30.19 in10.0 miSSW (200°)8.1 mphOvercast
3:10 PM37.4 °F32.0 °F81 %30.19 in10.0 miSW (230°)8.1 mphOvercast
3:30 PM37.4 °F32.0 °F81 %30.19 in10.0 miSW (220°)5.8 mphOvercast
3:50 PM37.4 °F32.0 °F81 %30.19 in10.0 miSSW (210°)6.9 mphOvercast
4:10 PM37.4 °F32.0 °F81 %30.19 in10.0 miCalmOvercast
4:30 PM35.6 °F32.0 °F87 %30.20 in10.0 miCalmOvercast
4:50 PM35.6 °F32.0 °F87 %30.20 in10.0 miSW (230°)5.8 mphMostly Cloudy
5:10 PM35.6 °F32.0 °F87 %30.20 in10.0 miWSW (250°)4.6 mphPartly Cloudy
5:30 PM33.8 °F28.4 °F81 %30.21 in10.0 miSW (220°)3.5 mphClear
5:50 PM32.0 °F28.4 °F87 %30.21 in10.0 miCalmClear
6:10 PM28.4 °F24.8 °F86 %30.21 in10.0 miCalmClear
6:30 PM28.4 °F24.8 °F86 %30.21 in10.0 miCalmClear
6:50 PM26.6 °F23.0 °F86 %30.22 in10.0 miCalmClear
7:10 PM26.6 °F23.0 °F86 %30.22 in10.0 miCalmClear
7:30 PM24.8 °F21.2 °F86 %30.22 in10.0 miCalmClear
7:50 PM24.8 °F23.0 °F93 %30.23 in10.0 miCalmClear
8:10 PM24.8 °F21.2 °F86 %30.23 in10.0 miCalmClear
8:30 PM24.8 °F19.4 °F80 %30.23 in10.0 miCalmClear
8:50 PM23.0 °F19.4 °F86 %30.23 in10.0 miCalmClear
9:10 PM23.0 °F19.4 °F86 %30.24 in10.0 miCalmPartly Cloudy
9:30 PM23.0 °F17.6 °F80 %30.24 in10.0 miSSW (210°)4.6 mphClear
9:50 PM23.0 °F17.6 °F80 %30.24 in10.0 miNorth (350°)3.5 mphMostly Cloudy
10:10 PM23.0 °F19.4 °F86 %30.25 in10.0 miCalmOvercast
10:25 PM23.0 °F19.4 °F86 %30.25 in10.0 miCalmOvercast
10:50 PM24.8 °F19.4 °F80 %30.25 in10.0 miSSE (160°)3.5 mphOvercast
11:10 PM24.8 °F21.2 °F86 %30.25 in10.0 miCalmOvercast
11:25 PM24.8 °F19.4 °F80 %30.25 in10.0 miCalmMostly Cloudy
11:50 PM24.8 °F19.4 °F80 %30.25 in10.0 miNW (310°)3.5 mphOvercast
Hourly data recorded from KWYS, located 0.33 miles away from West Yellowstone, Montana







STORIES FROM OUR PARTNERS